Location: Mahannah Oil Field
(37.4664°N, 96.6003°W)
Time: 02:04:30
(UTC+00:00)

Tiros 1 despin weight - Pass Details

Date: 24 January 2021
Orbit: 593 x 642 km, 48.2° (Epoch: 25 February)

Event Time Altitude Azimuth Distance (km) Brightness Sun altitude
Rises 21:39:34 0° 267° (W) 2,888 ? 19.3°
Reaches altitude 10° 21:42:06 10° 277° (W) 1,975 ? 19.0°
Maximum altitude 21:46:09 31° 340° (NNW) 1,080 ? 18.4°
Drops below altitude 10° 21:50:08 10° 43° (NE) 1,951 ? 17.8°
Sets 21:52:38 0° 54° (NE) 2,848 ? 17.4°
